Вернуться в каталог

STARLINK-31079

АктивенСвязьVLEO
NORAD 58598·PAYLOAD·🇺🇸 United States

Запущен Dec 19, 2023 с Cape Canaveral Space Force Station

Loading…

Ближайшие Пролёты (ближайшие 24 часа)

TLE

СвежийSource: CelesTrak SupGP

Эпоха: Sep 14, 2026, 22:40 UTC

1 58598C 23200K   26257.94493056  .00297320  00000+0  96814-3 0  2574
2 58598  42.9674  90.8904 0031562 272.0562 165.4199 15.88666770    10

Отслеживайте STARLINK-31079 в реальном времени с AllMySat

Download on the App Store